Laurinburg-Maxton, NC

6:40 PM EDT on April 24, 2017 (GMT -0400)
Laurinburg-Maxton

Weather History for KMEB - February, 2014

Change the Weather History Date:

Tuesday, February 18, 2014

  Actual Average (KHFF) Record (KHFF)
Temperature  
Mean Temperature 48 °F -  
Max Temperature 64 °F 53 °F 77 °F (2011)
Min Temperature 33 °F 34 °F 18 °F (2013)
Degree Days  
Heating Degree Days 16    
Moisture  
Dew Point 37 °F    
Average Humidity 71    
Maximum Humidity 96    
Minimum Humidity 33    
Precipitation  
Precipitation 0.00 in - - ()
Sea Level Pressure  
Sea Level Pressure 30.19 in    
Wind  
Wind Speed 6 mph (WSW)    
Max Wind Speed 9 mph    
Max Gust Speed -    
Visibility 9 miles    
Events      
Averages and records for this station are not official NWS values.
T = Trace of Precipitation, MM = Missing Value Source: NWS Daily Summary

Daily Weather History Graph

Daily Weather History Graph

Search for Another Location

Airport or City:

Trip Planner

Search our weather history database for the weather conditions in past years. The results will help you decide how hot, cold, wet, or windy it might be!

Date:

Astronomy

Feb. 18, 2014 Rise Set
Actual Time 6:59 AM EST 6:03 PM EST
Civil Twilight 6:34 AM EST 6:29 PM EST
Nautical Twilight 6:04 AM EST 6:58 PM EST
Astronomical Twilight 5:35 AM EST 7:27 PM EST
Moon 9:43 PM EST (2/18) 8:41 AM EST (2/18)
Length of Visible Light 11h 54m
Length of Day
11h 03m
Waning Gibbous, 87% of the Moon is Illuminated
Feb 18
Waning Gibbous
Feb 22
Last Quarter
Mar 1
New
Mar 8
First Quarter
Mar 16
Full

Hourly Weather History & Observations

Time (EST) Temp. Windchill Dew Point Humidity Pressure Visibility Wind Dir Wind Speed Gust Speed Precip Events Conditions
12:52 AM 41.0 °F 35.8 °F 33.1 °F 73% 30.18 in 10.0 mi SE 8.1 mph - N/A   Overcast
1:52 AM 41.0 °F 35.8 °F 34.0 °F 76% 30.18 in 10.0 mi South 8.1 mph - N/A   Overcast
2:52 AM 39.9 °F 35.8 °F 35.1 °F 83% 30.20 in 10.0 mi NW 5.8 mph - N/A   Overcast
3:52 AM 39.0 °F - 35.1 °F 86% 30.16 in 10.0 mi Calm Calm - N/A   Scattered Clouds
4:52 AM 37.0 °F 33.3 °F 34.0 °F 89% 30.14 in 8.0 mi SSW 4.6 mph - N/A   Clear
5:52 AM 34.0 °F 29.8 °F 32.0 °F 92% 30.16 in 7.0 mi NNW 4.6 mph - N/A   Clear
6:52 AM 33.1 °F 28.7 °F 32.0 °F 96% 30.19 in 6.0 mi North 4.6 mph - N/A   Clear
7:52 AM 36.0 °F 33.3 °F 34.0 °F 93% 30.22 in 5.0 mi North 3.5 mph - N/A   Clear
8:52 AM 43.0 °F 38.8 °F 37.9 °F 82% 30.25 in 7.0 mi NNW 6.9 mph - N/A   Scattered Clouds
9:01 AM 43.0 °F 37.7 °F 39.0 °F 86% 30.24 in 6.0 mi WNW 9.2 mph - N/A   Mostly Cloudy
9:52 AM 46.9 °F - 43.0 °F 86% 30.25 in 5.0 mi WNW 8.1 mph - N/A   Overcast
10:17 AM 48.9 °F - 43.0 °F 80% 30.25 in 6.0 mi West 4.6 mph - N/A   Haze
10:52 AM 52.0 °F - 43.0 °F 71% 30.25 in 8.0 mi WNW 6.9 mph - N/A   Clear
11:52 AM 57.9 °F - 39.0 °F 49% 30.23 in 10.0 mi NNW 9.2 mph - N/A   Clear
12:52 PM 60.1 °F - 37.9 °F 44% 30.20 in 10.0 mi SE 3.5 mph - N/A   Clear
1:52 PM 63.0 °F - 34.0 °F 34% 30.19 in 10.0 mi West 6.9 mph - N/A   Clear
2:52 PM 64.0 °F - 34.0 °F 33% 30.17 in 10.0 mi Variable 5.8 mph - N/A   Clear
3:52 PM 64.9 °F - 35.1 °F 33% 30.16 in 10.0 mi SW 8.1 mph - N/A   Clear
4:52 PM 63.0 °F - 34.0 °F 34% 30.16 in 10.0 mi SW 6.9 mph - N/A   Clear
5:52 PM 59.0 °F - 37.0 °F 44% 30.16 in 10.0 mi SW 4.6 mph - N/A   Clear
6:52 PM 48.9 °F - 42.1 °F 77% 30.17 in 10.0 mi Calm Calm - N/A   Clear
7:52 PM 46.0 °F 43.9 °F 41.0 °F 83% 30.16 in 10.0 mi SSE 4.6 mph - N/A   Clear
8:52 PM 45.0 °F - 39.9 °F 82% 30.16 in 10.0 mi Calm Calm - N/A   Clear
9:52 PM 42.1 °F - 39.9 °F 92% 30.15 in 10.0 mi Calm Calm - N/A   Clear
10:52 PM 46.0 °F 43.1 °F 39.9 °F 79% 30.13 in 10.0 mi SSE 5.8 mph - N/A   Clear
11:52 PM 46.0 °F 43.1 °F 39.9 °F 79% 30.11 in 10.0 mi South 5.8 mph - N/A   Clear